Location: Unspecified
(42.2730°N, 83.7130°W)
Time: 14:19:22
(UTC+00:00)

Helios 1A Rocket - Pass Details

Date: 14 December 2025
Orbit: 433 x 442 km, 98.3° (Epoch: 17 January)

Event Time Altitude Azimuth Distance (km) Brightness Sun altitude
Exits shadow 23:31:10 17° 128° (SE) 1,218 4.3 -15.6°
Drops below altitude 10° 23:32:31 10° 148° (SSE) 1,589 5.0 -15.9°
Sets 23:34:53 0° 165° (SSE) 2,456 6.2 -16.3°
